Dewpoint
25 22 22 19 20 19 19 21 20 21 21 20 19 18 15 14 16 19 20 21 23 22 15 15 17 14 15 15 16 15 15 15 15 14 15 16 15 15 15 15 17 16 15 25 23 22 22 22 20 20 17 16 14 15 14 13 15 15 14 15 14 15 14 14 15 14 15 16 16 16 12 12 9 9 8 8 13 15 14 16 17 17 15 16 17 16
25 20 21 19 16 17 18 19 20 19 19 18 10 10 9 14 8 17 17 21 21 18 9 17 16 16 15 14 15 16 15 14 14 15 15 15 16 16 18 18 19 18 21 22 20 20 20 19 21 21 20 18 14 14 13 15 15 15 14 13 11 12 13 13 12 15 14 15 16 16 17 14 12 11 12 13 10 11 13 17 18 17 15 16 16 15
19 17 16 14 16 17 19 20 19 19 18 13 5 5 3 5 10 12 17 20 19 18 6 17 14 12 11 10 14 15 15 16 15 15 15 15 16 16 16 18 19 19 20 19 18 20 19 22 22 19 18 16 17 16 15 15 15 16 16 16 15 15 15 14 15 16 15 14 16 14 14 13 13 13 11 11 15 14 15 14 17 17 16 16 15 15
13 15 10 15 17 14 14 14 14 15 13 1 0 -2 -3 3 6 -3 14 19 18 17 15 15 12 8 6 9 12 16 15 16 18 19 19 20 16 16 16 18 19 18 20 20 19 17 17 18 19 20 20 18 19 17 16 14 15 15 16 16 17 17 15 17 17 18 17 16 14 16 17 16 12 11 13 11 11 13 10 11 11 14 16 16 15 14
8 11 15 15 18 15 9 11 12 10 5 4 4 -2 -1 4 4 3 0 11 20 23 20 14 11 7 6 2 8 16 17 17 19 17 18 18 20 19 21 20 19 17 20 21 19 19 18 18 18 19 20 20 19 20 17 17 14 13 16 18 19 17 17 18 17 17 18 19 18 17 18 18 17 15 13 12 11 11 12 13 12 11 14 14 15 14
7 11 15 14 15 15 13 10 10 4 1 -2 3 3 2 4 1 1 4 8 4 7 15 12 -12 -21 -4 -2 -7 12 16 16 17 18 18 18 18 19 17 18 19 20 21 21 20 21 21 20 20 20 21 20 19 17 19 18 17 17 17 18 18 19 19 19 19 19 17 17 17 16 14 13 13 12 12 12 13 16 15 14 12 11 11 13 14 15
6 9 15 12 12 11 10 4 6 12 -8 -6 -6 6 9 7 6 6 4 8 -7 -3 8 11 -5 -6 -11 -9 -9 7 11 13 17 19 18 18 19 19 20 19 18 19 20 21 21 21 20 21 21 21 21 21 20 18 18 17 18 18 18 19 19 19 19 19 20 21 19 17 15 15 15 16 16 14 14 15 15 16 15 16 13 14 12 12 10 11
14 11 2 2 4 -0 -5 -7 5 5 -5 -13 3 12 11 9 9 9 6 4 -6 12 15 9 5 -1 -2 -2 9 8 10 8 10 14 16 17 18 18 19 20 21 20 20 23 23 22 22 22 22 21 22 20 19 20 21 19 19 19 19 20 21 20 20 21 21 20 20 18 18 18 17 16 16 15 15 15 15 15 16 15 15 14 13 12 9 10
3 3 5 -4 -7 -11 -12 3 8 8 -2 -2 9 11 13 13 11 10 9 6 8 3 -1 6 2 -4 -2 -2 -2 5 -1 -1 4 4 9 13 16 17 20 21 22 23 24 23 24 23 22 21 22 21 21 20 20 21 21 20 19 19 19 21 21 21 21 21 21 21 20 21 19 18 17 15 16 16 16 17 18 17 17 15 15 14 13 12 11 9
11 13 13 6 -4 -10 5 8 11 11 -0 4 17 16 14 14 14 14 10 9 9 1 -2 1 1 -5 -12 -15 -9 1 -1 -4 -6 -2 5 11 15 18 21 22 22 23 24 24 22 22 23 22 22 21 21 22 22 23 22 23 22 22 22 23 23 23 23 22 22 22 21 21 20 19 18 17 16 17 17 17 16 16 16 15 16 14 13 12 11 9
17 24 19 12 4 7 8 14 14 8 9 14 9 6 1 3 5 1 7 9 6 -5 -2 -0 1 -5 -8 -19 -22 -17 -22 -14 -8 -4 1 12 15 18 22 22 23 21 23 24 23 23 23 23 22 23 23 24 24 24 25 25 23 24 24 24 23 23 23 23 23 23 22 22 19 18 19 19 17 18 17 16 16 16 16 16 16 16 15 15 12 11
16 19 22 17 21 14 11 10 11 10 12 12 10 1 -6 -11 -12 -7 -1 -5 -9 -18 -4 -3 -1 -4 -11 -18 -16 -11 9 10 -4 -4 -4 4 11 16 19 20 20 20 22 22 22 23 23 23 23 23 24 24 24 24 24 24 24 24 23 22 21 20 20 20 20 20 20 20 18 19 19 18 17 17 17 16 16 16 16 16 15 15 15 14 14 12
-5 2 7 9 27 16 6 -0 5 6 6 4 0 -3 -16 -18 -13 -15 -13 -16 -17 -17 -1 -4 -6 -13 -9 -13 -13 -7 -8 0 11 8 -0 6 12 16 19 21 23 21 21 22 23 25 24 25 25 24 24 24 24 22 22 21 21 19 18 17 15 14 14 13 13 13 13 13 13 14 14 16 16 16 16 16 16 15 15 15 15 14 14 14 14 14
-11 5 3 3 10 16 8 -18 -19 -10 0 -6 -13 -10 -14 -19 -13 -13 -22 -14 -12 -14 -11 -12 -6 -15 -18 -17 -9 -8 -7 -1 5 13 15 12 13 16 18 21 21 23 24 25 24 24 24 24 25 24 24 22 21 20 19 18 17 15 13 12 10 9 8 7 7 5 5 4 6 7 7 10 12 13 14 14 14 15 15 15 15 14 14 13 13 13
-12 -9 -8 1 -6 7 2 -10 -12 -14 -7 -9 -7 -16 -6 -12 -12 -14 -17 -17 -9 -9 -19 -9 -5 -2 -10 -12 -11 -5 0 2 -1 3 9 11 15 18 17 19 20 24 24 24 24 23 24 24 24 23 22 20 18 17 16 14 12 10 6 3 3 3 4 3 3 2 2 2 2 4 4 4 4 5 7 8 11 13 14 14 14 14 14 14 13 12
-10 -11 -10 12 9 11 6 7 -1 -3 -6 -2 -1 -12 -7 -9 -6 -17 -1 -9 -7 -6 -10 3 -6 0 -11 -2 -3 10 -1 -1 1 5 10 14 13 16 21 22 22 22 22 23 23 23 23 23 22 21 19 17 15 14 11 10 7 4 2 2 2 2 2 2 2 1 1 1 2 1 0 0 2 3 3 3 4 6 8 10 12 13 14 13 13 12
-15 -26 10 17 16 12 14 13 12 1 -3 -8 -10 -5 -10 -5 -10 2 -4 -5 -3 -0 -2 4 -9 -9 -8 -9 -5 -1 -0 1 7 8 9 11 15 18 19 22 22 21 22 22 23 23 22 21 20 19 17 15 13 10 8 6 5 2 1 1 2 2 2 1 1 0 0 0 -0 -1 -0 0 0 1 2 2 4 5 6 8 10 11 13 13 12 10
-1 -15 6 9 4 15 18 16 9 6 4 -6 -0 -9 2 1 -1 5 -11 -1 -2 -5 -7 -7 0 -0 -10 -11 -3 -6 -5 1 1 9 10 12 16 17 19 21 20 21 21 22 23 22 21 20 18 17 15 13 11 10 6 5 5 1 2 2 3 3 2 1 0 0 0 -0 -0 -0 -0 -0 0 2 2 2 5 8 7 9 11 12 13 16 13 10
3 -4 -4 12 12 13 16 14 12 8 9 -2 -6 -1 -2 -4 -3 -5 -2 -7 -8 -7 -8 -6 -3 2 0 2 12 -9 3 2 3 5 8 11 14 18 18 18 19 20 20 21 21 20 20 18 16 14 14 12 10 8 4 2 1 1 2 4 3 3 2 2 1 1 1 1 0 0 0 0 1 2 3 5 6 5 5 6 8 8 11 10 9 7
-2 -3 -10 8 10 8 11 9 5 7 6 1 -0 -3 3 -8 -3 -6 -5 3 -10 -12 -5 -0 1 -6 0 7 8 4 7 6 8 11 12 16 18 19 19 18 18 20 21 20 20 19 19 17 15 13 12 9 7 5 3 2 1 1 3 4 4 4 3 2 2 1 1 1 1 1 1 1 4 4 6 4 2 4 4 5 5 5 7 8 11 11
7 -21 -11 2 10 2 2 9 3 5 8 3 2 4 4 6 -1 4 0 -4 -9 -8 -9 -9 -9 -3 -8 7 -3 8 14 15 14 12 15 16 17 18 18 18 19 20 19 19 18 17 17 15 13 12 9 7 6 5 3 1 1 1 1 4 4 3 3 3 3 2 2 2 2 3 2 3 7 6 6 6 4 4 6 4 4 4 5 9 8 11
9 -9 -6 -5 -2 2 -4 6 9 5 5 3 6 7 5 4 -2 -5 -5 5 -0 -8 -5 -10 -6 -3 -6 5 3 -0 11 15 20 15 17 17 15 15 15 14 17 19 18 17 17 16 14 13 10 9 8 6 5 4 2 2 1 1 -0 1 4 4 3 4 3 4 4 3 3 3 2 2 9 3 10 6 7 7 6 5 5 5 9 9 10 8
9 -3 -6 -1 -10 -12 -2 4 14 7 7 4 4 1 5 13 8 -6 -9 -1 -2 2 2 -5 -8 -5 13 19 4 7 10 15 16 17 17 13 11 10 11 13 16 17 16 16 16 15 13 11 10 8 7 6 5 3 3 2 1 1 1 -1 3 5 4 4 4 4 4 3 3 2 2 3 1 2 3 5 6 7 8 8 8 10 10 9 9 9
16 5 1 -3 -4 -7 -0 7 12 10 8 4 5 3 5 5 8 1 -1 2 -5 2 -5 -4 -5 -3 10 11 9 11 11 13 11 8 7 8 10 7 9 13 14 15 15 15 15 13 12 11 9 8 7 6 5 4 2 2 1 2 1 0 -1 4 5 4 4 4 4 3 2 1 -1 -1 0 -0 1 2 4 6 8 10 11 12 11 11 10 10
1 1 -8 -3 -3 -5 -10 -1 2 4 7 3 5 4 5 10 11 8 8 1 -4 4 -2 -7 -9 -4 11 13 15 10 7 5 5 6 3 4 6 7 9 12 13 14 14 14 14 12 11 10 9 8 7 6 6 4 3 2 1 2 1 -0 -2 2 6 4 4 4 2 1 -0 1 -2 -2 0 -0 -1 0 2 5 8 9 10 10 11 11 11 10
5 5 -3 -8 -7 -7 -4 -5 -6 -3 6 2 8 7 4 13 11 5 -1 1 -2 7 1 -3 -6 4 8 11 6 6 6 7 6 5 5 6 6 7 10 12 12 12 13 14 14 12 11 10 9 8 7 6 6 5 3 2 2 1 1 -2 -3 0 5 5 3 3 2 0 -1 -2 1 2 3 0 -2 -0 2 4 5 6 7 8 8 8 6 6
10 7 -2 -2 -1 -7 -2 1 -4 -9 -8 -0 7 13 14 9 13 13 7 0 -3 3 1 5 5 2 2 1 2 4 6 2 1 4 4 6 7 7 8 10 11 12 13 14 14 12 11 10 8 8 6 6 6 5 3 2 1 1 -0 -3 -2 1 3 5 4 3 2 -0 -1 2 -2 1 -3 -2 -1 0 2 3 4 4 3 3 1 1 2 2
10 8 8 2 2 -2 -7 -6 0 -3 -7 -8 2 12 16 11 12 10 4 0 11 0 -4 5 8 8 5 2 2 1 3 3 2 2 5 6 7 7 8 10 16 12 14 15 14 13 11 10 8 7 6 6 6 5 3 2 1 0 -2 -3 -2 0 3 5 5 3 4 2 1 2 -1 -3 -2 0 0 2 2 2 2 -0 -1 -3 -4 -2 -3 -1
13 6 14 10 11 11 4 1 -0 -1 -2 -3 -1 1 10 12 10 12 10 8 9 0 -3 -1 5 10 3 2 1 1 -0 1 1 2 3 5 5 7 9 10 12 12 14 15 14 13 12 10 8 7 6 6 6 5 3 1 -0 -0 -2 -1 -2 5 7 5 4 3 2 2 -1 -2 -3 -1 2 2 2 2 1 -1 -2 -4 -6 -4 -5 -5 -6 -1
13 7 10 7 6 3 3 3 3 2 2 4 10 5 3 5 11 10 8 6 6 6 2 0 1 1 1 0 1 2 4 3 1 1 2 3 4 7 8 9 11 12 14 15 14 13 12 11 9 7 6 6 7 6 3 1 -0 -1 -1 -2 1 -0 1 6 3 2 3 1 1 2 3 1 1 1 1 -0 -1 -2 -5 -4 -5 -4 -2 -5 -4 -2
11 5 19 14 7 10 5 6 6 4 6 4 3 4 5 5 4 6 9 5 7 5 4 2 5 8 6 6 5 7 6 6 4 4 5 5 5 7 9 10 11 13 14 15 14 13 12 10 9 7 7 7 7 5 3 0 -1 -2 -2 -1 1 4 3 3 2 2 3 1 2 1 -0 -0 0 0 -2 -1 -5 -1 -4 -4 -2 -2 -4 -4 -4 -3
10 8 7 6 4 6 2 3 4 5 5 7 5 5 4 4 9 7 10 9 9 10 10 9 9 8 7 7 5 5 4 4 5 6 6 7 8 9 10 11 12 14 14 15 14 13 11 10 9 7 7 7 7 5 2 -0 -1 -1 -1 -2 3 3 2 1 1 1 2 1 -1 -1 -0 -1 -1 -2 -2 -4 -2 -2 -2 -2 -3 -3 -3 -4 -4 -4
12 8 6 4 4 7 1 3 5 5 5 10 12 9 8 6 6 7 7 7 7 8 12 8 8 8 7 5 3 3 4 4 5 6 6 7 8 9 10 11 12 14 15 15 15 14 12 10 9 8 7 7 6 4 1 0 -1 -0 -1 -1 4 2 1 -0 0 1 -0 -1 -2 -1 -1 -1 -1 -2 -2 -2 -3 -2 -2 -3 -4 -4 -3 -4 -4 -4
11 11 7 8 3 7 1 4 6 4 3 2 -1 3 6 3 5 5 5 5 6 6 7 7 7 6 5 4 3 3 3 3 4 5 6 6 7 8 10 11 12 14 15 15 15 14 12 10 8 8 8 7 6 4 1 0 -0 -1 0 -1 2 3 1 0 0 -1 -1 -1 -1 -1 -1 -1 -2 -2 -2 -3 -3 -3 -3 -3 -3 -4 -4 -4 -4 -3
12 10 8 4 4 6 9 7 6 4 5 5 1 2 -0 -0 1 1 2 4 5 6 6 6 5 5 5 5 5 5 4 4 3 3 4 6 7 7 9 10 13 14 14 15 14 13 12 10 9 8 7 7 5 2 2 1 0 0 1 2 2 2 -0 -1 -1 -2 -1 -2 -1 -1 -2 -3 -3 -3 -3 -3 -2 -3 -3 -4 -3 -4 -3 -4 -5 -4
12 10 6 5 4 7 6 3 0 4 2 4 3 3 4 3 3 3 3 3 2 3 5 5 5 6 6 6 5 5 4 5 7 7 6 7 6 7 10 11 13 13 14 14 13 12 11 10 9 7 6 6 4 2 2 2 3 3 2 1 0 -0 -1 -2 -2 -2 -2 -2 -1 -3 -2 -3 -2 -3 -2 -3 -3 -4 -4 -4 -4 -4 -4 -5 -6 -4
14 12 10 10 10 5 3 -0 3 3 3 1 -1 1 2 -2 2 1 5 3 4 3 3 3 5 5 6 6 6 5 10 9 7 6 9 10 10 10 10 12 14 14 14 13 12 11 10 9 8 7 6 5 3 2 2 2 2 1 0 -1 -1 -2 -2 -2 -2 -2 -2 -3 -3 -3 -3 -3 -3 -3 -3 -4 -4 -4 -4 -4 -4 -5 -5 -5 -5 -5
12 14 11 11 10 7 4 4 6 4 4 4 4 2 4 2 2 4 7 12 5 5 4 2 3 4 4 5 4 8 10 7 7 7 9 11 12 13 13 13 13 13 12 10 10 9 9 8 6 4 4 4 2 2 3 2 2 1 -1 -2 -2 -3 -3 -2 -3 -3 -3 -4 -3 -3 -3 -3 -3 -3 -3 -3 -3 -3 -4 -4 -4 -5 -5 -5 -6 -6
14 13 15 11 12 5 4 4 4 2 6 -1 1 4 5 5 1 5 9 9 8 7 7 4 4 4 4 5 6 9 10 7 6 10 12 14 14 14 12 11 11 10 9 9 9 8 7 6 5 3 4 3 2 2 3 3 0 -1 -2 -2 -2 -3 -3 -3 -2 -2 -3 -3 -3 -3 -4 -4 -3 -4 -4 -3 -3 -3 -4 -5 -5 -5 -5 -6 -6 -6
16 15 14 12 11 9 5 2 5 7 9 4 3 3 5 6 4 9 5 5 2 3 6 5 5 4 6 5 9 12 9 6 8 7 12 13 13 12 11 9 8 8 7 7 8 7 6 4 4 4 3 2 3 4 3 2 0 -0 -1 -0 -1 -2 -2 -2 -3 -4 -2 -3 -3 -4 -4 -4 -4 -4 -4 -4 -4 -4 -5 -5 -6 -6 -6 -7 -7 -7
16 15 14 13 13 12 10 9 9 10 11 12 11 5 7 7 6 6 4 7 8 5 6 7 5 5 7 8 12 11 15 10 9 11 10 10 9 9 8 8 7 8 7 7 6 8 4 4 5 5 3 4 3 3 3 1 0 -0 -0 -1 -2 -3 -3 -3 -3 -4 -4 -3 -4 -4 -5 -4 -5 -4 -4 -5 -6 -6 -7 -8 -7 -7 -7 -6 -8 -8
14 13 11 12 11 11 12 10 10 12 13 13 12 7 7 9 5 5 9 11 8 6 5 7 7 7 8 8 11 11 8 9 11 9 9 9 9 8 7 6 6 6 6 6 6 5 4 5 4 3 3 3 4 3 2 1 0 -0 -1 -2 -3 -3 -3 -4 -3 -3 -3 -4 -4 -4 -4 -5 -5 -5 -6 -6 -7 -8 -8 -8 -8 -8 -8 -10 -10 -9
13 13 10 10 13 12 11 10 8 6 15 11 8 7 9 8 8 10 10 8 6 5 4 5 6 8 9 8 9 10 9 10 10 9 9 9 9 7 7 6 6 6 5 4 4 4 4 4 3 2 2 2 2 2 1 1 0 -1 -2 -3 -3 -4 -3 -4 -5 -5 -5 -4 -5 -5 -5 -5 -6 -7 -7 -8 -8 -9 -9 -9 -9 -9 -10 -10 -11 -11
20 9 8 10 13 8 8 6 8 12 9 9 6 9 7 8 9 12 9 7 7 6 6 6 6 8 10 10 10 9 9 11 11 10 9 9 9 8 7 6 7 6 4 5 4 3 5 3 2 1 2 1 2 1 1 0 -1 -2 -3 -3 -3 -3 -4 -4 -5 -5 -5 -4 -5 -5 -5 -6 -7 -8 -9 -9 -10 -10 -10 -11 -10 -10 -12 -12 -12 -13
12 13 16 7 14 9 5 10 12 10 9 9 9 7 8 9 11 11 8 8 8 8 8 8 9 10 10 11 11 11 11 12 13 11 11 9 9 8 7 7 7 6 5 4 5 3 4 3 2 1 1 -0 0 0 0 0 -1 -2 -3 -3 -2 -3 -3 -4 -4 -4 -5 -5 -6 -7 -7 -7 -8 -8 -9 -9 -10 -11 -12 -11 -11 -12 -12 -12 -13 -13
7 8 5 5 11 9 7 8 12 10 10 11 12 13 10 10 10 9 8 8 9 9 10 9 12 12 13 12 11 12 13 12 13 14 12 11 10 9 8 8 8 7 5 4 3 4 3 3 3 2 1 0 -0 -0 -1 -0 -1 -3 -3 -3 -4 -3 -4 -4 -5 -5 -6 -7 -8 -8 -8 -8 -9 -10 -10 -10 -11 -12 -11 -12 -12 -13 -13 -13 -14 -14
10 7 10 10 11 11 10 10 11 10 12 13 12 13 13 12 11 10 9 9 9 10 12 13 13 13 12 13 13 15 14 14 14 15 14 13 11 11 10 9 9 7 6 5 4 4 3 3 2 2 1 1 0 1 -0 -1 -2 -2 -2 -3 -3 -4 -4 -6 -6 -7 -7 -7 -8 -8 -8 -9 -10 -10 -9 -9 -10 -11 -12 -13 -13 -13 -14 -14 -15 -15
13 10 13 14 13 11 10 12 12 13 14 15 14 12 12 12 12 13 12 11 12 14 14 14 13 12 13 13 14 15 15 15 16 15 15 15 14 12 12 10 10 8 6 5 3 4 4 3 3 2 1 0 0 -0 -1 -2 -2 -2 -3 -3 -4 -4 -5 -7 -8 -8 -8 -8 -8 -10 -9 -10 -12 -12 -11 -10 -10 -12 -12 -13 -13 -14 -14 -15 -15 -15
13 18 15 16 14 13 14 14 15 16 15 15 15 14 14 14 14 14 14 14 14 14 14 14 14 15 15 15 15 16 16 16 16 17 16 16 14 13 12 11 10 8 6 4 4 3 3 3 3 2 1 0 -0 -1 -2 -2 -2 -3 -3 -4 -5 -7 -8 -9 -9 -9 -8 -9 -9 -10 -11 -11 -11 -11 -11 -11 -11 -12 -12 -13 -13 -14 -13 -12 -14 -14
16 15 17 16 14 13 13 15 17 15 14 15 15 16 16 17 16 15 14 15 15 15 15 14 14 15 15 16 16 16 17 17 16 16 16 15 14 13 12 10 9 8 6 5 3 2 3 3 2 2 1 0 -1 -2 -2 -3 -3 -4 -4 -5 -5 -7 -9 -9 -10 -10 -10 -10 -10 -10 -11 -12 -11 -11 -11 -12 -13 -13 -12 -12 -9 -11 -14 -14 -10 -8
16 16 16 15 15 14 16 18 18 17 17 17 17 18 18 18 17 16 16 16 16 16 15 15 15 15 14 14 14 16 16 16 15 15 15 14 13 13 12 10 8 7 6 3 2 1 2 2 1 1 -0 -1 -2 -2 -3 -3 -4 -4 -5 -5 -7 -8 -9 -9 -10 -10 -10 -10 -11 -12 -12 -12 -11 -10 -11 -11 -12 -13 -15 -15 -14 2 6 1 0 -0